| time (UTC) | temp F | wind direction | speed knots | gust knots | rain 1hr in | rain 24hr in | rain mn in | humidity % | barometer mb |
| 20260904223531 | 80 | 299 | 1.7 | 8.7 | 0.00 | 0.00 | 0.00 | 50 | 1010.8 |
| 20260904222027 | 81 | 254 | 3.5 | 10.4 | 0.00 | 0.00 | 0.00 | 45 | 1010.8 |
| 20260904220527 | 83 | 200 | 0.9 | 6.1 | 0.00 | 0.00 | 0.00 | 43 | 1011.1 |
| 20260904215026 | 82 | 250 | 3.5 | 11.3 | 0.00 | 0.00 | 0.00 | 45 | 1011.0 |
| 20260904213523 | 82 | 242 | 1.7 | 8.7 | 0.00 | 0.00 | 0.00 | 45 | 1011.2 |
| 20260904212019 | 81 | 248 | 1.7 | 10.4 | 0.00 | 0.00 | 0.00 | 48 | 1011.2 |
| 20260904210544 | 82 | 225 | 1.7 | 10.4 | 0.00 | 0.00 | 0.00 | 48 | 1011.2 |
| 20260904205016 | 81 | 225 | 3.5 | 11.3 | 0.00 | 0.00 | 0.00 | 51 | 1011.2 |
| 20260904203517 | 82 | 179 | 0.9 | 11.3 | 0.00 | 0.00 | 0.00 | 50 | 1011.2 |
| 20260904202026 | 82 | 229 | 1.7 | 8.7 | 0.00 | 0.00 | 0.00 | 48 | 1011.2 |
| 20260904200537 | 80 | 249 | 1.7 | 10.4 | 0.00 | 0.00 | 0.00 | 52 | 1011.3 |
| 20260904195033 | 81 | 253 | 0.9 | 8.7 | 0.00 | 0.00 | 0.00 | 53 | 1011.5 |
| 20260904193533 | 79 | 253 | 2.6 | 8.7 | 0.00 | 0.00 | 0.00 | 55 | 1011.7 |
| 20260904192029 | 79 | 252 | 0.0 | 7.0 | 0.00 | 0.00 | 0.00 | 54 | 1011.8 |
| 20260904190522 | 79 | 227 | 0.0 | 9.6 | 0.00 | 0.00 | 0.00 | 54 | 1011.8 |
| 20260904185041 | 80 | 223 | 0.0 | 7.0 | 0.00 | 0.00 | 0.00 | 55 | 1012.0 |
| 20260904183534 | 80 | 249 | 0.9 | 6.1 | 0.00 | 0.00 | 0.00 | 49 | 1012.1 |
| 20260904182021 | 78 | 279 | 0.0 | 5.2 | 0.00 | 0.00 | 0.00 | 52 | 1012.1 |
| 20260904180529 | 77 | 267 | 1.7 | 5.2 | 0.00 | 0.00 | 0.00 | 57 | 1012.1 |
| 20260904175035 | 75 | 296 | 0.0 | 0.0 | 0.00 | 0.00 | 0.00 | 61 | 1012.3 |
| 20260904173523 | 74 | 242 | 0.0 | 6.1 | 0.00 | 0.00 | 0.00 | 64 | 1012.3 |
| 20260904172032 | 74 | 213 | 0.0 | 0.0 | 0.00 | 0.00 | 0.00 | 64 | 1012.3 |
| 20260904170520 | 73 | 229 | 0.0 | 0.0 | 0.00 | 0.00 | 0.00 | 67 | 1012.3 |
| 20260904165029 | 71 | 304 | 0.0 | 0.0 | 0.00 | 0.00 | 0.00 | 69 | 1012.5 |
| 20260904163518 | 70 | 310 | 0.0 | 0.0 | 0.00 | 0.00 | 0.00 | 71 | 1012.2 |
| 20260904162026 | 70 | 314 | 0.0 | 0.0 | 0.00 | 0.00 | 0.00 | 72 | 1012.2 |
| 20260904160515 | 68 | 321 | 0.0 | 0.0 | 0.00 | 0.00 | 0.00 | 73 | 1012.0 |
| 20260904155050 | 68 | 321 | 0.0 | 0.0 | 0.00 | 0.00 | 0.00 | 75 | 1012.0 |
| 20260904153524 | 67 | 321 | 0.0 | 0.0 | 0.00 | 0.00 | 0.00 | 76 | 1012.0 |
| 20260904152016 | 66 | 319 | 0.0 | 0.0 | 0.00 | 0.00 | 0.00 | 77 | 1012.0 |
| 20260904150527 | 65 | 307 | 0.0 | 0.0 | 0.00 | 0.00 | 0.00 | 78 | 1011.8 |
| 20260904145018 | 65 | 291 | 0.0 | 0.0 | 0.00 | 0.00 | 0.00 | 79 | 1011.7 |
| 20260904143527 | 64 | 290 | 0.0 | 0.0 | 0.00 | 0.00 | 0.00 | 80 | 1011.7 |
| 20260904142039 | 64 | 290 | 0.0 | 0.0 | 0.00 | 0.00 | 0.00 | 80 | 1011.6 |
| 20260904140544 | 64 | 290 | 0.0 | 0.0 | 0.00 | 0.00 | 0.00 | 80 | 1011.4 |
| 20260904135044 | 64 | 290 | 0.0 | 0.0 | 0.00 | 0.00 | 0.00 | 79 | 1011.4 |
| 20260904133521 | 64 | 290 | 0.0 | 0.0 | 0.00 | 0.00 | 0.00 | 80 | 1011.4 |
| 20260904132036 | 64 | 290 | 0.0 | 0.0 | 0.00 | 0.00 | 0.00 | 80 | 1011.3 |
| 20260904130536 | 64 | 290 | 0.0 | 0.0 | 0.00 | 0.00 | 0.00 | 80 | 1010.9 |
| 20260904125030 | 64 | 290 | 0.0 | 0.0 | 0.00 | 0.00 | 0.00 | 80 | 1010.9 |
| 20260904123529 | 64 | 290 | 0.0 | 0.0 | 0.00 | 0.00 | 0.00 | 80 | 1010.9 |
| 20260904122027 | 64 | 290 | 0.0 | 0.0 | 0.00 | 0.00 | 0.00 | 80 | 1010.9 |
| 20260904120525 | 64 | 290 | 0.0 | 0.0 | 0.00 | 0.00 | 0.00 | 80 | 1010.9 |
| 20260904115021 | 64 | 290 | 0.0 | 0.0 | 0.00 | 0.00 | 0.00 | 80 | 1011.0 |
| 20260904113517 | 64 | 290 | 0.0 | 0.0 | 0.00 | 0.00 | 0.00 | 80 | 1011.0 |
| 20260904112015 | 64 | 290 | 0.0 | 0.0 | 0.00 | 0.00 | 0.00 | 80 | 1011.0 |
| 20260904110534 | 64 | 290 | 0.0 | 0.0 | 0.00 | 0.00 | 0.00 | 81 | 1011.1 |
| 20260904105014 | 65 | 290 | 0.0 | 0.0 | 0.00 | 0.00 | 0.00 | 81 | 1011.1 |
| 20260904103516 | 65 | 290 | 0.0 | 0.0 | 0.00 | 0.00 | 0.00 | 81 | 1010.9 |
| 20260904102034 | 64 | 290 | 0.0 | 0.0 | 0.00 | 0.00 | 0.00 | 81 | 1010.9 |
| 20260904100534 | 64 | 290 | 0.0 | 0.0 | 0.00 | 0.00 | 0.00 | 82 | 1010.8 |
| 20260904095030 | 64 | 290 | 0.0 | 0.0 | 0.00 | 0.00 | 0.00 | 82 | 1010.8 |
| 20260904093529 | 64 | 290 | 0.0 | 0.0 | 0.00 | 0.00 | 0.00 | 82 | 1010.9 |
| 20260904092024 | 64 | 290 | 0.0 | 0.0 | 0.00 | 0.00 | 0.00 | 82 | 1010.8 |
| 20260904090523 | 64 | 290 | 0.0 | 0.0 | 0.00 | 0.00 | 0.00 | 82 | 1010.8 |
| 20260904085027 | 64 | 290 | 0.0 | 0.0 | 0.00 | 0.00 | 0.00 | 83 | 1010.8 |
| 20260904083542 | 64 | 290 | 0.0 | 0.0 | 0.00 | 0.00 | 0.00 | 83 | 1011.0 |
| 20260904082020 | 64 | 290 | 0.0 | 0.0 | 0.00 | 0.00 | 0.00 | 83 | 1011.0 |
| 20260904080531 | 64 | 290 | 0.0 | 0.0 | 0.00 | 0.00 | 0.00 | 83 | 1011.2 |
| 20260904075028 | 63 | 290 | 0.0 | 0.0 | 0.00 | 0.00 | 0.00 | 83 | 1011.2 |
| 20260904073526 | 64 | 290 | 0.0 | 0.0 | 0.00 | 0.00 | 0.00 | 82 | 1011.3 |
| 20260904072021 | 64 | 290 | 0.0 | 0.0 | 0.00 | 0.00 | 0.00 | 82 | 1011.3 |
| 20260904070517 | 64 | 290 | 0.0 | 0.0 | 0.00 | 0.00 | 0.00 | 82 | 1011.3 |
| 20260904065025 | 64 | 290 | 0.0 | 0.0 | 0.00 | 0.00 | 0.00 | 81 | 1011.3 |
| 20260904063526 | 64 | 290 | 0.0 | 0.0 | 0.00 | 0.00 | 0.00 | 81 | 1011.3 |
| 20260904062022 | 65 | 290 | 0.0 | 0.0 | 0.00 | 0.00 | 0.00 | 81 | 1011.2 |
| 20260904060520 | 65 | 290 | 0.0 | 0.0 | 0.00 | 0.00 | 0.00 | 80 | 1011.2 |
| 20260904055018 | 65 | 290 | 0.0 | 0.0 | 0.00 | 0.00 | 0.00 | 80 | 1011.1 |
| 20260904053516 | 65 | 290 | 0.0 | 0.0 | 0.00 | 0.00 | 0.00 | 79 | 1011.0 |
| 20260904052034 | 65 | 290 | 0.0 | 0.0 | 0.00 | 0.00 | 0.00 | 79 | 1011.0 |
| 20260904050542 | 66 | 290 | 0.0 | 0.0 | 0.00 | 0.00 | 0.00 | 79 | 1011.1 |
| 20260904045019 | 66 | 290 | 0.0 | 0.0 | 0.00 | 0.00 | 0.00 | 78 | 1010.9 |
| 20260904043521 | 66 | 290 | 0.0 | 0.0 | 0.00 | 0.00 | 0.00 | 78 | 1011.0 |
| 20260904042037 | 66 | 290 | 0.0 | 0.0 | 0.00 | 0.00 | 0.00 | 78 | 1011.1 |
| 20260904040516 | 66 | 290 | 0.0 | 0.0 | 0.00 | 0.00 | 0.00 | 77 | 1011.0 |
| 20260904035015 | 67 | 290 | 0.0 | 0.0 | 0.00 | 0.00 | 0.00 | 77 | 1011.0 |
| 20260904033541 | 67 | 287 | 0.0 | 0.0 | 0.00 | 0.00 | 0.00 | 76 | 1011.0 |
| 20260904032016 | 67 | 287 | 0.0 | 0.0 | 0.00 | 0.00 | 0.00 | 76 | 1010.7 |
| 20260904030521 | 68 | 287 | 0.0 | 0.0 | 0.00 | 0.00 | 0.00 | 75 | 1010.6 |
| 20260904025017 | 68 | 284 | 0.0 | 0.0 | 0.00 | 0.00 | 0.00 | 74 | 1010.6 |
| 20260904023516 | 69 | 278 | 0.0 | 0.9 | 0.00 | 0.00 | 0.00 | 74 | 1010.5 |
| 20260904022014 | 69 | 284 | 0.0 | 1.7 | 0.00 | 0.00 | 0.00 | 73 | 1010.3 |
| 20260904020516 | 71 | 277 | 0.0 | 1.7 | 0.00 | 0.00 | 0.00 | 71 | 1010.4 |
| 20260904015034 | 71 | 277 | 0.0 | 1.7 | 0.00 | 0.00 | 0.00 | 71 | 1010.4 |
| 20260904013534 | 72 | 281 | 0.0 | 3.5 | 0.00 | 0.00 | 0.00 | 69 | 1010.5 |
| 20260904012031 | 72 | 248 | 0.0 | 0.0 | 0.00 | 0.00 | 0.00 | 69 | 1010.5 |
| 20260904010532 | 73 | 265 | 0.0 | 6.1 | 0.00 | 0.00 | 0.00 | 67 | 1010.6 |
| 20260904005031 | 73 | 269 | 0.9 | 6.1 | 0.00 | 0.00 | 0.00 | 66 | 1010.7 |
| 20260904003530 | 74 | 253 | 0.0 | 5.2 | 0.00 | 0.00 | 0.00 | 64 | 1010.8 |
| 20260904002027 | 73 | 309 | 0.0 | 10.4 | 0.00 | 0.00 | 0.00 | 66 | 1010.6 |
| 20260904000528 | 74 | 225 | 0.9 | 8.7 | 0.00 | 0.00 | 0.00 | 66 | 1010.5 |
| 20260903235052 | 75 | 246 | 1.7 | 10.4 | 0.00 | 0.00 | 0.00 | 64 | 1010.5 |
| 20260903233530 | 76 | 292 | 0.0 | 10.4 | 0.00 | 0.00 | 0.00 | 62 | 1010.6 |
| 20260903232024 | 76 | 281 | 2.6 | 8.7 | 0.00 | 0.00 | 0.00 | 61 | 1010.8 |
| 20260903230551 | 77 | 259 | 0.9 | 7.0 | 0.00 | 0.00 | 0.00 | 61 | 1010.8 |
| 20260903225025 | 77 | 264 | 0.0 | 10.4 | 0.00 | 0.00 | 0.00 | 61 | 1010.9 |